Home   Weather   Itumbiara   Past weeks

Flag for Brazil Past Weather in Itumbiara, Goiás, Brazil — Yesterday and Last 2 Weeks

Now
81 °F

Scattered clouds.


Feels Like: 83 °F
Forecast: N/A
Wind: 5 mph from Northwest

Location: Goiania Aeroporto

Current Time: Dec 9, 2016 at 7:41:59 pm

Latest Report: Dec 9, 2016 at 7:00 pm


Visibility: N/A

Pressure: 29.86 "Hg

Humidity: 62%

Dew Point: 66 °F

Location of ItumbiaraLocation

Past Weather in Itumbiara — Graph

°F

Itumbiara Temperature Yesterday

Maximum temperature yesterday: 77 °F (at 11:00 am)
Minimum temperature yesterday: 70 °F (at 2:00 pm)
Average temperature yesterday: 73 °F

High & Low Weather Summary for the Past Weeks

 TemperatureHumidityPressure
High91 °F (Nov 26, 2:00 pm)100% (Dec 6, 8:00 pm)30.12 "Hg (Dec 6, 8:00 pm)
Low34 °F (Dec 6, 10:00 pm)16% (Nov 26, 5:00 pm)29.86 "Hg (Dec 4, 3:00 pm)
Average76 °F71%29.99 "Hg
* Reported Nov 24 6:00 pm — Dec 9 6:00 pm, Itumbiara, Weather by CustomWeather, © 2016

Note: Actual official high and low records may vary slightly from our data, if they occured in-between our weather recording intervals... More about our weather records

Advertising

Itumbiara Weather History for the Previous 24 Hours

Scroll right to see more
 ConditionsComfort  
Time TempWeatherWind HumidityBarometerVisibility
6:00 pm
Fri, Dec 9
79 °FPassing clouds.5 mph65%29.86 "HgN/A
5:00 pm79 °FPassing clouds.9 mph61%29.86 "HgN/A
4:00 pm81 °FPassing clouds.6 mph58%29.89 "HgN/A
3:00 pm79 °FPassing clouds.12 mph61%29.92 "HgN/A
2:00 pm82 °FScattered clouds.9 mph55%29.95 "HgN/A
1:00 pm82 °FScattered clouds.7 mph55%29.98 "HgN/A
12:00 pm79 °FScattered clouds.9 mph65%30.01 "HgN/A
11:00 am79 °FScattered clouds.7 mph65%30.01 "HgN/A
10:00 am75 °FScattered clouds.9 mph74%30.01 "HgN/A
9:00 am73 °FPartly sunny.8 mph78%29.98 "HgN/A
8:00 am72 °FPartly sunny.No wind88%29.98 "HgN/A
7:00 am68 °FScattered clouds.No wind94%29.95 "HgN/A
6:00 am68 °FPassing clouds.No wind94%29.95 "HgN/A
5:00 am68 °FPassing clouds.No wind94%29.95 "HgN/A
4:00 am68 °FPassing clouds.No wind94%29.95 "HgN/A
3:00 am70 °FPassing clouds.No wind88%29.95 "HgN/A
2:00 am70 °FPassing clouds.No wind94%29.98 "HgN/A
1:00 am70 °FPassing clouds.No wind88%30.01 "HgN/A
12:00 am70 °FClear.No wind88%30.01 "Hg10 mi
11:00 pm
Thu, Dec 8
70 °FClear.No wind88%30.01 "Hg10 mi
10:00 pm72 °FPassing clouds.No wind83%29.98 "HgN/A
9:00 pm72 °FPassing clouds.No wind83%29.95 "HgN/A
8:00 pm72 °FPassing clouds.No wind83%29.92 "HgN/A
7:00 pm73 °FPassing clouds.3 mph83%29.92 "HgN/A
Weather by CustomWeather, © 2016

See weather overviewHow to use our weather pages